Location: Ottobeuren
(47.9410°N, 10.3007°E)
Time: 15:19:48
(UTC+02:00)

BlueWalker 3 - Pass Details

Date: 28 February 2024
Orbit: 485 x 495 km, 53.2° (Epoch: 25 April)

Event Time Altitude Azimuth Distance (km) Brightness Sun altitude
Rises 21:20:08 0° 295° (WNW) 2,556 6.6 -33.2°
Reaches altitude 10° 21:22:23 10° 288° (WNW) 1,671 5.4 -33.6°
Enters shadow 21:22:48 13° 285° (WNW) 1,517 5.1 -33.6°
